User: anonymous   Login
Location: Unspecified
(0.0000°N, 0.0000°E)
Time: 19:46:36
(UTC+00:00)
Language:

UME 1 - Orbit

View from above orbital plane
View from above orbital plane
View from above satellite
View from above satellite

Ground track
Ground track

The orbit data is extracted from the following two-line orbital elements,

1 08709U 76019A   17269.24365494 -.00000029  00000-0  25108-4 0  9991
2 08709  69.6730 293.8057 0008695 145.8986 284.4439 13.71390498 80513
Epoch (UTC): 26 September 2017 05:50:51
Eccentricity: 0.0008695
inclination: 69.6730°
perigee height: 988 km
apogee height: 1001 km
right ascension of ascending node: 293.8057°
argument of perigee: 145.8986°
revolutions per day: 13.71390498
mean anomaly at epoch: 284.4439°
orbit number at epoch: 8051

The dashed part of the orbit path shows where the satellite is in the earth's shadow,  

DLR